Regional Weather Roundup
Issued by NWS Austin/San Antonio, TX

Current Version | Previous Version | Text Only | Print | Product List | Glossary On
Versions: 1 2 3 4 5 6 7 8 9 10 11 12 13 14 15 16 17 18 19 20 21 22 23 24 25 26 27 28 29 30 31 32 33 34 35 36 37 38 39 40 41 42 43 44 45 46 47 48 49 50
000
ASUS44 KEWX 200001
RWREWX
SOUTH TEXAS REGIONAL WEATHER ROUNDUP
NATIONAL WEATHER SERVICE AUSTIN/SAN ANTONIO TX
700 PM CDT FRI OCT 19 2018

NOTE: "FAIR" INDICATED FEW OR NO CLOUDS BELOW 12,000 FEET WITH NO
SIGNIFICANT WEATHER AND/OR OBSTRUCTIONS TO VISIBILITY.

* - THESE STATIONS ARE NOT NWS OR FAA STATIONS...AND ARE NOT SUBJECT
    TO NWS AND FAA QUALITY CONTROL.

TXZ171-172-183>190-200100-
TEXAS HILL COUNTRY AND EDWARDS PLATEAU

CITY           SKY/WX    TMP DP  RH WIND       PRES   REMARKS
JUNCTION       NOT AVBL
*LLANO         CLOUDY    64  61  88 CALM      30.19R
BURNET         CLOUDY    63  61  93 N3        30.17R
6HR MIN TEMP:  60; 6HR MAX TEMP:  63; 6HR PCP:  0.37;

*HORSESHOE BAY CLOUDY    61  60  95 CALM      30.16R
6HR MIN TEMP:  59; 6HR MAX TEMP:  62; 6HR PCP:  0.06;

*KERRVILLE     CLOUDY    62  59  88 N6        30.15S
6HR MIN TEMP:  60; 6HR MAX TEMP:  63;

*FREDERICKSBRG CLOUDY    61  58  91 N3        30.16R
6HR MIN TEMP:  59; 6HR MAX TEMP:  61;

*ROCKSPRINGS   LGT RAIN  61  59  94 NE5       30.20R
*BOERNE STAGE  CLOUDY    61  61 100 N6        30.14S
*CASTROVILLE   CLOUDY    67  65  93 NE7       30.13R
HONDO          CLOUDY    70  65  84 N7        30.11R
6HR MIN TEMP:  68; 6HR MAX TEMP:  71;

*UVALDE        CLOUDY    68  66  92 E3        30.12R
6HR MIN TEMP:  65; 6HR MAX TEMP:  69;

DEL RIO        CLOUDY    62  62 100 NW7       30.13R
6HR MIN TEMP:  61; 6HR MAX TEMP:  63; 6HR PCP:  0.15;

LAUGHLIN AFB   LGT RAIN  62  61  97 W9        30.13R
6HR MIN TEMP:  62; 6HR MAX TEMP:  65; 6HR PCP:  0.04;

CARRIZO SPRGS  CLOUDY    66  63  88 NW3       30.10R
*EAGLE PASS    CLOUDY    59  54  82 W9        30.13R
*FAITH RANCH   CLOUDY    66  64  94 NW8       30.11S
$$

TXZ173-191>194-202-209-217>225-228-200100-
CENTRAL AND SOUTH CENTRAL TEXAS

CITY           SKY/WX    TMP DP  RH WIND       PRES   REMARKS
GEORGETOWN     LGT RAIN  60  60 100 N6        30.16S FOG
6HR MIN TEMP:  60; 6HR MAX TEMP:  62; 6HR PCP:  0.40;

AUSTIN/BERGSTM LGT RAIN  64  61  90 N6        30.14R
6HR MIN TEMP:  64; 6HR MAX TEMP:  66; 6HR PCP:  0.26;

AUSTIN/MABRY   CLOUDY    62  60  93 VRB3      30.15R
6HR MIN TEMP:  62; 6HR MAX TEMP:  64; 6HR PCP:  0.18;

*LAGO VISTA    RAIN      61  61 100 N5        30.15R
6HR MIN TEMP:  60; 6HR MAX TEMP:  61; 6HR PCP:  0.20;

SAN MARCOS     CLOUDY    63  61  93 MISG        N/A
6HR MIN TEMP:  63; 6HR MAX TEMP:  65; 6HR PCP:  0.04;

NEW BRAUNFELS  CLOUDY    64  61  90 N9        30.12R
6HR MIN TEMP:  64; 6HR MAX TEMP:  67; 6HR PCP: TRACE;

RANDOLPH AFB   CLOUDY    64  61  91 N8        30.12R
6HR MIN TEMP:  64; 6HR MAX TEMP:  66; 6HR PCP:  0.05;

PT SAN ANTONIO CLOUDY    65  63  93 N10       30.09R
6HR MIN TEMP:  65; 6HR MAX TEMP:  67; 6HR PCP:  0.01;

SAN ANTONIO    CLOUDY    64  62  93 N8        30.12R
6HR MIN TEMP:  64; 6HR MAX TEMP:  66; 6HR PCP:  0.07;

STINSON FIELD  CLOUDY    68  62  81 N8        30.09R
6HR MIN TEMP:  68; 6HR MAX TEMP:  69; 6HR PCP:  0.10;

*LA GRANGE     CLOUDY    65  65 100 N12       30.09S
6HR MIN TEMP:  65; 6HR MAX TEMP:  74; 6HR PCP:  0.01;

*GIDDINGS      DRIZZLE   59  58  96 N5        30.12S
6HR MIN TEMP:  59; 6HR MAX TEMP:  69; 6HR PCP:  0.05;

*GONZALES      CLOUDY    65  64  96 N10       30.10R
6HR MIN TEMP:  65; 6HR MAX TEMP:  73;

$$

TXZ163>164-176>182-195>201-210>213-226-227-235-200100-
SOUTHEAST TEXAS

CITY           SKY/WX    TMP DP  RH WIND       PRES   REMARKS
COLLEGE STN    HVY RAIN  64  64 100 N9        30.11S FOG
6HR MIN TEMP:  64; 6HR MAX TEMP:  75; 6HR PCP:  0.32;

*BRYAN         RAIN      64  64 100 NW6       30.14R
6HR MIN TEMP:  64; 6HR MAX TEMP:  72; 6HR PCP:  0.12;

*CALDWELL      CLOUDY    62  61  95 N10       30.13R
6HR MIN TEMP:  62; 6HR MAX TEMP:  71; 6HR PCP:  0.53;

*CROCKETT        N/A     64  63  94 NW6       30.14R
*BRENHAM       CLOUDY    69  68  98 NW8       30.11R
HUNTSVILLE     LGT RAIN  68  63  84 N3        30.10R
6HR MIN TEMP:  68; 6HR MAX TEMP:  76; 6HR PCP: TRACE;

CONROE         LGT RAIN  74  74 100 CALM      30.08R
6HR MIN TEMP:  72; 6HR MAX TEMP:  77; 6HR PCP: TRACE;

HOUSTON BUSH   CLOUDY    76  75  97 VRB5      30.06R
6HR MIN TEMP:  76; 6HR MAX TEMP:  81; 6HR PCP: TRACE;

HOUSTON HOBBY  CLOUDY    79  75  87 E6        30.05R
6HR MIN TEMP:  77; 6HR MAX TEMP:  80; 6HR PCP: TRACE;

*HOUSTON SW AP FAIR      76  75  98 CALM      30.06R
6HR MIN TEMP:  76; 6HR MAX TEMP:  81; 6HR PCP:  0.02;

PEARLAND       FAIR      78  77  96 CALM      30.06S
6HR MIN TEMP:  77; 6HR MAX TEMP:  81; 6HR PCP: TRACE;

HOUSTON HOOKS  MOCLDY    75  74  96 NW5       30.07R
6HR MIN TEMP:  74; 6HR MAX TEMP:  80; 6HR PCP:  0.04;

ELLINGTON FLD  MOCLDY    79  73  83 E5        30.07R
SUGAR LAND     CLOUDY    77  75  93 N3        30.05R
6HR MIN TEMP:  77; 6HR MAX TEMP:  83; 6HR PCP:  0.10;

*HOUSTON EXEC  CLOUDY    73  73 100 NW5       30.07S
*CLEVELAND MUN FAIR      75  72  88 CALM      30.08R
*WHARTON       CLOUDY    73  70  91 CALM      30.07R
6HR MIN TEMP:  73; 6HR MAX TEMP:  79; 6HR PCP:  0.95;

*COLUMBUS      HVY RAIN  70  68  91 N8        30.08S
*EAGLE LAKE    RAIN      75  74  96 N7        30.05F
6HR MIN TEMP:  75; 6HR MAX TEMP:  81; 6HR PCP:  0.47;

$$

TXZ214>216-236>238-200100-
THE UPPER TEXAS COAST

CITY           SKY/WX    TMP DP  RH WIND       PRES   REMARKS
*ORANGE        CLOUDY    79  76  91 SE3       30.08R
PORT ARTHUR    MOCLDY    80  74  81 E6        30.06R
6HR MIN TEMP:  80; 6HR MAX TEMP:  85;

GALVESTON      FAIR      80  77  90 E7        30.05R
6HR MIN TEMP:  80; 6HR MAX TEMP:  85;

ANGLETON       FAIR      79  76  90 CALM      30.04R
6HR MIN TEMP:  79; 6HR MAX TEMP:  82; 6HR PCP:  0.02;

*BAY CITY      LGT RAIN  73  72  94 CALM      30.04R
PALACIOS       CLOUDY    74  74 100 N3        30.03S
6HR MIN TEMP:  74; 6HR MAX TEMP:  82; 6HR PCP:  1.02;

$$

TXZ229>234-239>247-200100-
TEXAS COASTAL BEND AND RIO GRANDE PLAINS

CITY           SKY/WX    TMP DP  RH WIND       PRES   REMARKS
VICTORIA       CLOUDY    76  74  93 N5        30.05R
6HR MIN TEMP:  75; 6HR MAX TEMP:  81; 6HR PCP:  0.02;

*BEEVILLE      CLOUDY    74  73  96 N5        30.04R FOG
6HR MIN TEMP:  72; 6HR MAX TEMP:  76;

ROCKPORT       CLOUDY    74  73  97 NE8       30.02R
6HR MIN TEMP:  73; 6HR MAX TEMP:  78;

*PORT ARANSAS  CLOUDY    76  74  95 N3        30.03R
6HR MIN TEMP:  73; 6HR MAX TEMP:  79; 6HR PCP:  0.51;

*PORT LAVACA   CLOUDY    78  75  91 N3        30.05R
6HR MIN TEMP:  77; 6HR MAX TEMP:  81; 6HR PCP:  0.02;

*INGLESIDE     CLOUDY    78  75  92 NE3       30.02R
CORPUS CHRISTI CLOUDY    71  70  96 NW9       30.03R FOG
6HR MIN TEMP:  71; 6HR MAX TEMP:  76; 6HR PCP:  0.01;

CORPUS NAS     CLOUDY    76  73  91 W6        30.03R
6HR MIN TEMP:  75; 6HR MAX TEMP:  82; 6HR PCP:  0.03;

*ROBSTOWN      CLOUDY    71  68  92 NW9       30.04R FOG
ALICE          CLOUDY    69  66  90 NW12      30.05R FOG
6HR MIN TEMP:  69; 6HR MAX TEMP:  72;

KINGSVILLE NAS DRIZZLE   71  67  87 NW12      30.05R FOG
6HR MIN TEMP:  70; 6HR MAX TEMP:  75; 6HR PCP: TRACE;

COTULLA        CLOUDY    67  66  97 N5        30.10R
6HR MIN TEMP:  65; 6HR MAX TEMP:  68;

LAREDO         CLOUDY    68  63  84 NW7       30.09R
6HR MIN TEMP:  63; 6HR MAX TEMP:  69;

$$

TXZ248>255-200100-
DEEP SOUTH TEXAS

CITY           SKY/WX    TMP DP  RH WIND       PRES   REMARKS
BROWNSVILLE    CLOUDY    75  70  84 N6        30.02S
6HR MIN TEMP:  71; 6HR MAX TEMP:  78;

PORT ISABEL    CLOUDY    75  68  78 N7        30.01R
6HR MIN TEMP:  71; 6HR MAX TEMP:  76;

HARLINGEN      CLOUDY    73  66  78 NW9       30.02R
6HR MIN TEMP:  69; 6HR MAX TEMP:  76;

*HEBBRONVILLE  CLOUDY    67  63  84 N5        30.08S HAZE
MCALLEN        CLOUDY    74  67  78 NW9       30.04S
6HR MIN TEMP:  71; 6HR MAX TEMP:  76;

*WESLACO



USA.gov is the U.S. government's official web portal to all federal, state and local government web resources and services.